Weather History for KPIH - January, 2013

Change the Weather History Date:

Wednesday, January 30, 2013

  Actual Average Record
Temperature  
Mean Temperature 32 °F 25 °F  
Max Temperature 37 °F 34 °F 51 °F (1992)
Min Temperature 27 °F 17 °F -20 °F (1979)
Degree Days  
Heating Degree Days 33 40  
Month to date heating degree days 1523 1220  
Since 1 July heating degree days 4080 4205  
Cooling Degree Days 0 0  
Month to date cooling degree days 0 0  
Year to date cooling degree days 0 0  
Moisture  
Dew Point 28 °F    
Average Humidity 84    
Maximum Humidity 92    
Minimum Humidity 75    
Precipitation  
Precipitation 0.00 in 0.03 in 0.44 in (1963)
Month to date precipitation 0.57 0.96  
Year to date precipitation 0.57 0.96  
Snow  
Snow 0.00 in - - ()
Month to date snowfall 7.0  
Since 1 July snowfall 26.6  
Snow Depth 2.00 in    
Sea Level Pressure  
Sea Level Pressure 30.17 in    
Wind  
Wind Speed 21 mph (SW)    
Max Wind Speed 31 mph    
Max Gust Speed 40 mph    
Visibility 10 miles    
Events      
T = Trace of Precipitation, MM = Missing Value Source: NWS Daily Summary

Daily Weather History Graph

Daily Weather History Graph

Search for Another Location

Airport or City:

Trip Planner

Search our weather history database for the weather conditions in past years. The results will help you decide how hot, cold, wet, or windy it might be!

Date:

Astronomy

Jan. 30, 2013 Rise Set
Actual Time 7:46 AM MST 5:40 PM MST
Civil Twilight 7:16 AM MST 6:11 PM MST
Nautical Twilight 6:42 AM MST 6:45 PM MST
Astronomical Twilight 6:09 AM MST 7:18 PM MST
Moon 9:51 PM MST (1/30) 9:09 AM MST (1/30)
Length of Visible Light 10h 54m
Length of Day
9h 54m
Waning Gibbous, 87% of the Moon is Illuminated
Jan 30
Waning Gibbous
Feb 3
Last Quarter
Feb 10
New
Feb 17
First Quarter
Feb 25
Full

Hourly Weather History & Observations

Time (MST) Temp. Windchill Dew Point Humidity Pressure Visibility Wind Dir Wind Speed Gust Speed Precip Events Conditions
12:11 AM 26.6 °F 14.3 °F 21.2 °F 80% 30.11 in 10.0 mi SSW 16.1 mph - N/A   Mostly Cloudy
12:22 AM 26.6 °F 14.7 °F 21.2 °F 80% 30.11 in 10.0 mi SSW 15.0 mph - N/A   Scattered Clouds
12:32 AM 26.6 °F 14.3 °F 21.2 °F 80% 30.11 in 10.0 mi SSW 16.1 mph - N/A   Mostly Cloudy
12:53 AM 27.0 °F 13.5 °F 23.0 °F 85% 30.20 in 10.0 mi SW 19.6 mph - N/A   Mostly Cloudy
1:43 AM 28.4 °F 15.8 °F 24.8 °F 86% 30.11 in 10.0 mi SW 18.4 mph - N/A   Mostly Cloudy
1:53 AM 28.9 °F 16.5 °F 25.0 °F 85% 30.20 in 10.0 mi SW 18.4 mph - N/A   Overcast
2:20 AM 28.4 °F 15.8 °F 24.8 °F 86% 30.12 in 10.0 mi WSW 18.4 mph 27.6 mph N/A   Overcast
2:53 AM 28.9 °F 16.9 °F 26.1 °F 89% 30.19 in 10.0 mi SW 17.3 mph - N/A   Overcast
3:53 AM 30.9 °F 19.4 °F 27.0 °F 85% 30.17 in 10.0 mi SW 17.3 mph - N/A   Overcast
4:07 AM 30.2 °F 18.1 °F 26.6 °F 86% 30.10 in 10.0 mi WSW 18.4 mph - N/A   Overcast
4:45 AM 30.2 °F 18.9 °F 26.6 °F 86% 30.09 in 10.0 mi WSW 16.1 mph - N/A   Overcast
4:53 AM 30.9 °F 19.8 °F 27.0 °F 85% 30.16 in 10.0 mi WSW 16.1 mph - N/A   Overcast
5:53 AM 32.0 °F 20.5 °F 28.0 °F 85% 30.16 in 10.0 mi SW 18.4 mph - N/A   Overcast
6:53 AM 32.0 °F 20.5 °F 28.9 °F 88% 30.17 in 10.0 mi WSW 18.4 mph - N/A   Overcast
7:53 AM 32.0 °F 20.8 °F 28.9 °F 88% 30.19 in 10.0 mi SW 17.3 mph - N/A   Overcast
8:53 AM 32.0 °F 21.2 °F 28.9 °F 88% 30.21 in 10.0 mi WSW 16.1 mph 24.2 mph N/A   Overcast
9:53 AM 33.1 °F 21.5 °F 30.0 °F 89% 30.21 in 10.0 mi SW 19.6 mph - N/A   Overcast
10:53 AM 33.1 °F 22.2 °F 30.0 °F 89% 30.22 in 10.0 mi SW 17.3 mph - N/A   Overcast
11:06 AM 33.8 °F 23.2 °F 28.4 °F 81% 30.13 in 10.0 mi SW 17.3 mph - N/A   Overcast
11:53 AM 34.0 °F 22.1 °F 30.0 °F 85% 30.20 in 10.0 mi SW 21.9 mph - N/A   Overcast
12:53 PM 36.0 °F 23.5 °F 30.0 °F 79% 30.16 in 10.0 mi WSW 27.6 mph 34.5 mph N/A   Mostly Cloudy
1:53 PM 36.0 °F 23.9 °F 30.0 °F 79% 30.16 in 10.0 mi SW 25.3 mph 33.4 mph N/A   Mostly Cloudy
2:53 PM 36.0 °F 24.2 °F 30.9 °F 82% 30.14 in 10.0 mi SW 24.2 mph - N/A   Mostly Cloudy
3:53 PM 37.0 °F 25.4 °F 30.9 °F 79% 30.14 in 10.0 mi SW 25.3 mph 34.5 mph N/A   Mostly Cloudy
4:53 PM 36.0 °F 23.0 °F 30.9 °F 82% 30.15 in 10.0 mi WSW 29.9 mph 39.1 mph N/A   Overcast
5:53 PM 36.0 °F 24.4 °F 30.9 °F 82% 30.16 in 10.0 mi WSW 23.0 mph 35.7 mph N/A   Mostly Cloudy
6:53 PM 35.1 °F 23.0 °F 30.9 °F 85% 30.18 in 10.0 mi SW 24.2 mph - N/A   Overcast
7:53 PM 34.0 °F 21.3 °F 30.9 °F 89% 30.16 in 10.0 mi SW 25.3 mph 31.1 mph N/A   Mostly Cloudy
8:53 PM 34.0 °F 22.4 °F 30.0 °F 85% 30.20 in 10.0 mi SW 20.7 mph 29.9 mph N/A   Scattered Clouds
9:53 PM 34.0 °F 21.8 °F 30.0 °F 85% 30.21 in 10.0 mi SW 23.0 mph - N/A   Mostly Cloudy
10:53 PM 33.1 °F 21.2 °F 28.9 °F 85% 30.22 in 10.0 mi SW 20.7 mph - N/A   Mostly Cloudy
11:53 PM 33.1 °F 20.6 °F 30.0 °F 89% 30.25 in 10.0 mi SW 23.0 mph - N/A   Mostly Cloudy